Theta_e
309 310 310 309 307 310 315 317 316 315 314 313 311 309 306 304 302 302 302 304 307 310 312 316 316 316 320 321 323 327 332 334 333 332 331 325 329 324 326 328 326 328 326 327 328
306 308 309 309 308 309 311 316 317 317 315 313 312 311 310 308 305 303 302 302 302 304 307 310 312 314 321 323 327 325 328 331 330 330 331 327 327 326 328 328 328 328 326 327 328
306 306 307 308 310 308 309 313 316 316 316 315 313 312 311 310 308 304 303 302 302 302 303 306 311 316 319 323 324 325 322 327 329 328 328 329 327 325 326 329 329 329 329 327 327
303 305 305 306 307 310 308 309 314 315 315 316 315 313 312 311 308 303 306 308 304 302 302 305 316 318 319 320 324 324 324 325 327 327 327 329 328 329 326 328 326 326 326 327 327
302 303 304 304 306 307 309 308 310 314 314 314 315 315 313 312 311 309 311 311 308 303 301 312 315 316 317 320 324 325 323 325 326 326 326 326 328 329 328 328 325 326 326 326 327
301 301 302 303 305 306 308 309 309 312 313 311 312 315 313 312 312 311 307 310 311 302 302 313 314 317 316 319 320 321 323 324 325 326 326 326 324 326 327 327 327 326 326 327 327
300 299 300 301 301 303 306 308 308 310 311 311 309 313 312 313 313 309 309 306 307 308 310 315 317 316 318 320 321 320 321 323 323 324 324 323 323 324 321 323 325 327 328 328 328
300 299 299 300 301 301 303 306 308 310 311 310 309 312 313 313 314 312 306 306 306 311 305 312 319 320 320 320 321 320 320 318 318 321 322 322 320 319 319 321 321 320 321 322 323
300 299 299 299 300 301 301 305 307 308 311 311 309 311 314 313 313 314 313 312 306 312 311 316 318 317 320 318 317 320 314 318 315 319 319 322 318 318 318 320 320 320 321 321 322
300 299 298 299 298 299 301 302 304 307 310 311 310 310 311 312 313 313 313 311 310 313 315 316 315 316 317 317 311 316 315 315 316 316 320 319 320 318 318 319 320 319 320 320 320
298 299 298 297 297 299 300 302 303 305 309 311 310 310 311 312 313 312 312 311 312 315 314 314 314 314 314 316 310 310 315 313 314 315 319 318 318 317 317 319 319 318 318 319 318
298 297 298 298 298 298 299 302 304 308 309 310 309 309 310 312 311 311 311 311 313 315 312 315 314 310 311 314 315 311 312 313 315 316 317 315 316 316 316 316 316 316 316 316 316
298 298 297 297 299 298 299 301 303 306 308 309 309 309 310 311 311 310 310 312 312 313 314 312 311 311 312 313 315 315 313 311 310 316 316 317 314 314 315 315 315 315 315 315 315
297 297 297 297 298 298 299 299 301 304 305 308 309 310 310 310 310 311 311 311 313 314 313 313 311 312 312 310 312 311 313 314 313 313 310 313 309 311 310 312 314 314 314 314 314
298 298 298 298 298 297 298 298 300 302 307 309 309 310 310 311 309 309 311 311 313 313 313 313 313 312 313 312 312 311 313 315 314 314 313 312 313 310 313 311 313 315 316 316 316
297 299 298 299 298 298 297 299 300 303 307 309 308 309 311 310 310 309 308 310 312 313 312 312 311 312 312 312 313 313 315 316 316 316 316 311 312 311 311 311 312 315 315 315 315
296 297 297 298 298 298 298 299 303 305 306 308 309 309 310 311 310 309 310 309 313 314 315 313 312 311 310 312 313 314 315 315 316 316 315 310 312 311 311 311 311 313 314 313 314
297 297 297 297 298 297 298 300 302 304 306 306 309 309 309 310 310 310 311 311 311 312 313 314 314 313 311 311 313 314 313 312 311 313 312 312 312 312 312 311 311 312 312 313 312
297 297 298 297 296 297 298 301 302 302 304 306 309 310 309 309 309 310 311 311 311 311 312 313 312 311 312 311 312 313 314 310 308 309 313 311 312 311 312 312 311 314 312 312 309
297 297 298 298 297 298 299 300 302 303 304 305 308 308 311 310 310 310 310 310 310 310 311 311 312 310 311 312 311 313 312 313 313 311 311 309 310 311 313 313 313 313 313 311 306
297 297 297 298 298 298 300 300 300 299 302 304 305 307 309 310 310 310 310 309 309 310 311 310 311 310 311 313 314 312 314 313 312 312 311 309 309 309 310 312 314 314 313 309 305
296 298 297 298 298 298 299 300 299 300 299 301 303 305 306 308 310 310 309 309 309 309 311 311 310 312 311 311 312 313 313 314 314 313 312 311 311 310 311 311 312 312 311 306 303
295 296 297 298 300 299 299 300 300 301 302 302 303 304 304 306 306 309 309 308 308 310 311 311 309 313 311 310 309 313 314 313 313 312 315 315 312 311 310 310 309 309 306 303 300
296 296 295 297 297 299 299 300 299 299 300 300 302 301 302 303 305 307 308 309 308 310 310 310 311 311 312 311 311 312 313 313 314 315 313 314 312 312 310 311 307 306 303 301 299
295 295 296 298 298 296 297 298 299 300 299 300 301 302 303 302 303 307 308 307 307 308 309 310 311 311 311 310 309 311 312 313 314 314 314 314 313 313 312 310 307 305 302 299 298
295 294 292 291 293 297 298 298 298 299 300 300 301 301 301 302 303 306 308 309 309 308 310 310 313 311 310 310 310 310 311 311 312 313 314 313 312 312 311 309 307 303 301 299 298
295 296 295 295 295 297 297 297 298 299 299 299 300 300 301 302 301 300 305 306 306 307 309 309 310 311 312 310 310 309 309 311 311 311 312 313 312 311 309 307 305 303 301 299 295
Wind_Speed
18 18 16 17 22 22 18 16 15 12 9 9 9 10 12 13 14 17 19 15 12 15 14 12 11 8 4 1 1 1 3 5 4 6 4 5 6 3 4 3 3 4 2 4 3
25 22 18 17 18 21 22 17 16 16 13 10 8 9 10 11 12 15 16 17 17 15 14 12 7 5 3 2 1 4 4 6 1 3 2 5 5 5 5 7 5 4 6 3 4
18 21 23 21 16 18 21 21 17 15 15 12 10 9 7 7 10 8 11 13 18 19 16 12 9 7 8 5 6 3 6 6 5 5 3 3 4 3 5 6 8 7 7 6 5
25 19 23 22 24 17 19 23 19 16 13 12 12 11 7 3 4 3 4 5 11 19 19 15 10 8 7 8 8 7 7 6 5 5 4 3 1 4 8 6 4 8 7 9 7
22 26 19 24 25 23 18 22 23 17 17 14 11 13 10 6 9 4 2 4 3 10 22 15 14 10 10 7 8 8 6 7 3 4 3 3 8 8 9 10 9 7 10 10 9
24 23 28 24 23 26 22 19 22 22 17 17 14 16 16 9 11 14 13 4 5 5 19 15 10 8 7 5 11 3 11 5 4 7 4 6 14 6 12 15 14 13 13 13 13
22 20 21 23 23 25 25 21 20 22 20 18 17 18 21 19 8 4 12 15 5 1 14 16 8 11 8 5 4 3 5 3 10 6 6 4 17 18 24 18 15 16 18 17 17
21 20 19 18 20 17 25 21 20 20 21 19 18 20 19 18 24 16 4 4 8 3 10 17 8 8 6 6 5 6 4 7 5 10 7 11 19 1 21 26 26 26 26 24 20
23 19 18 18 17 19 17 23 21 21 19 19 19 19 10 16 28 23 22 16 7 4 10 13 9 6 6 8 5 7 6 13 8 12 8 15 16 6 10 15 21 23 25 25 23
20 20 21 19 17 19 16 17 18 20 19 19 17 11 15 13 22 25 21 10 9 9 9 9 7 8 9 12 12 11 8 8 11 5 13 15 25 10 5 9 15 19 20 19 20
20 21 21 19 18 18 15 13 12 11 23 17 10 16 11 16 15 23 26 19 14 13 9 16 8 17 20 20 8 9 13 11 6 4 8 18 23 21 22 22 21 22 21 23 26
19 20 21 20 17 19 19 18 17 8 11 32 11 28 15 18 10 18 25 18 14 15 15 9 21 14 11 16 18 8 11 11 3 4 6 13 23 22 24 28 31 31 30 30 29
20 21 22 21 18 21 22 26 13 16 6 16 35 14 26 20 8 21 29 22 20 18 22 19 4 22 14 16 18 19 18 10 5 2 9 11 22 24 19 32 33 31 30 29 32
23 28 29 23 19 23 24 25 22 13 4 11 13 21 19 20 14 16 30 19 11 22 20 16 20 14 17 22 19 19 14 15 11 5 8 2 12 15 5 8 10 22 24 26 24
16 25 26 28 21 23 24 24 19 12 7 11 19 15 29 23 17 24 33 23 14 14 12 11 13 17 20 17 19 10 9 14 16 14 11 17 8 9 3 9 10 14 17 16 14
9 11 21 28 30 21 19 16 19 7 11 9 16 19 20 32 15 18 18 17 12 11 18 17 7 19 14 11 19 8 10 8 7 8 9 19 15 19 17 12 13 15 14 13 10
9 12 18 26 38 31 20 20 7 11 3 7 11 21 29 17 20 13 16 13 11 10 14 15 11 5 14 13 14 16 15 6 6 7 11 4 11 21 4 6 9 13 14 9 10
13 14 17 24 29 26 24 7 11 10 13 3 11 21 28 24 21 18 20 19 19 21 12 14 11 18 13 15 11 23 20 8 10 10 10 9 13 9 3 24 21 15 16 12 8
6 12 16 20 26 23 25 12 9 5 14 5 13 11 18 23 15 19 23 24 22 21 15 16 18 8 14 13 18 18 20 17 9 2 3 10 13 13 11 10 12 15 14 13 12
4 10 16 19 22 26 9 17 6 5 4 20 15 13 13 21 16 22 22 20 14 19 22 9 10 10 18 16 20 13 17 11 11 8 12 13 16 14 6 13 17 14 14 14 17
6 4 9 18 24 14 4 6 3 2 7 8 19 10 13 12 19 15 17 15 30 27 29 13 12 4 14 20 21 9 14 11 9 11 8 9 12 17 19 15 12 16 20 20 22
7 2 11 22 7 3 3 6 9 7 3 3 3 10 9 10 19 20 28 26 32 36 31 27 11 12 18 11 18 24 22 25 9 15 16 14 15 6 2 8 15 10 16 21 22
8 4 14 25 4 5 2 2 1 3 6 5 5 7 7 10 10 21 21 29 28 30 22 18 9 6 5 5 7 19 20 20 18 4 14 12 13 11 9 2 6 15 21 23 23
11 4 4 11 5 5 5 5 7 7 4 6 5 4 5 9 11 8 17 15 27 34 34 22 18 21 19 20 13 17 27 22 24 14 16 17 21 20 9 14 13 18 22 24 24
11 6 7 6 8 4 4 7 11 8 8 13 6 11 7 6 16 24 17 11 10 28 27 15 15 25 26 23 11 19 23 29 24 25 19 23 23 24 22 11 20 25 25 25 25
13 7 4 4 9 10 6 9 12 9 9 6 10 5 7 10 13 13 25 17 13 16 23 22 6 14 22 25 21 13 20 23 28 30 27 23 21 26 32 14 22 27 30 29 27
21 17 12 7 6 9 6 8 7 6 9 11 11 10 10 13 14 21 4 11 7 5 21 18 12 10 21 26 22 15 18 22 25 29 29 26 28 28 14 16 25 29 31 30 27
Wind_Direction
255 252 254 249 246 242 240 246 242 240 250 266 271 274 274 276 275 269 265 258 248 241 242 237 260 269 299 295 38 96 227 203 178 186 148 164 195 163 188 177 190 190 136 160 176
249 256 253 253 248 246 238 237 240 237 240 244 262 270 276 279 279 270 258 252 245 239 234 234 238 225 218 190 162 221 227 208 157 190 194 181 211 180 188 189 212 198 233 221 198
258 253 252 250 251 245 241 234 234 234 235 239 246 259 276 296 296 255 250 248 240 235 227 219 210 184 203 191 189 183 228 188 207 207 211 197 216 201 211 214 219 215 192 233 221
255 260 252 251 247 248 240 233 231 228 226 228 238 245 250 257 258 208 217 275 253 222 216 203 191 183 197 195 195 210 230 196 185 194 173 207 231 230 226 232 206 228 226 228 226
254 251 254 249 239 243 242 234 228 228 225 227 230 231 223 229 245 215 179 345 327 213 208 192 189 190 199 199 180 222 219 213 177 191 223 220 234 243 248 247 242 230 225 229 235
255 255 248 255 245 239 240 239 231 227 225 224 225 231 214 218 249 235 239 265 7 192 194 189 199 188 194 202 206 214 217 226 248 226 242 243 251 218 242 243 243 238 238 237 242
247 251 253 254 255 245 243 243 234 228 228 227 225 226 216 223 243 252 231 233 260 115 185 184 169 179 168 174 214 190 194 255 235 222 227 225 257 235 236 237 241 240 246 246 249
236 244 242 248 252 253 241 238 236 228 225 224 221 224 235 240 237 239 181 190 217 208 182 186 164 173 172 136 125 203 224 225 198 206 228 199 250 267 231 234 239 242 244 250 253
230 230 240 240 244 251 245 236 240 230 226 221 222 214 242 221 226 235 238 251 230 171 161 181 185 190 168 178 184 197 222 224 257 218 210 212 265 247 224 228 244 245 248 250 253
228 227 245 245 243 240 247 233 238 234 223 216 211 200 226 192 218 223 224 212 187 165 154 168 180 201 205 193 204 197 212 214 221 194 221 233 253 242 243 232 242 253 250 247 248
231 234 236 237 241 238 227 219 227 236 218 206 200 203 147 190 195 207 210 181 176 178 180 185 200 207 203 209 222 223 215 219 210 201 224 240 257 257 250 250 249 248 250 255 257
242 235 232 231 239 234 219 215 211 211 222 219 202 210 213 181 170 198 190 174 180 191 186 186 226 207 214 215 217 210 218 226 234 223 226 259 262 264 258 252 248 249 251 256 264
241 240 236 231 228 235 223 224 211 224 245 223 223 195 197 177 189 189 181 188 193 194 197 209 174 198 184 199 211 225 229 214 236 154 235 283 272 256 250 250 248 250 252 253 253
244 238 235 228 224 230 231 218 214 254 254 207 203 216 194 201 232 202 190 174 198 208 200 229 222 195 206 219 204 226 223 229 219 233 254 187 282 263 193 223 227 235 241 240 244
282 242 229 212 205 215 220 213 210 216 236 178 183 195 188 179 140 206 207 195 200 181 183 211 187 194 207 211 200 238 181 202 212 231 267 241 267 257 191 241 221 224 223 225 236
306 225 214 207 215 216 212 204 193 205 216 163 155 183 173 195 183 156 176 203 202 188 220 216 210 201 210 196 190 144 135 149 197 223 244 234 226 261 242 234 219 204 222 217 219
281 238 220 207 210 208 199 176 213 219 119 180 180 175 189 183 185 173 178 188 185 174 201 215 192 190 197 180 187 183 167 172 205 210 240 208 217 248 291 325 241 227 226 229 223
289 231 221 218 206 206 199 208 226 197 198 253 181 185 191 183 196 180 182 198 215 210 194 203 205 202 185 194 180 200 190 191 213 223 250 164 233 241 218 222 237 222 241 213 199
312 199 199 211 205 202 194 220 229 209 209 210 186 188 196 199 180 185 190 198 195 204 206 206 225 186 188 190 168 201 212 220 268 84 259 223 250 283 237 243 235 229 229 231 173
236 205 209 204 201 192 192 219 240 243 268 206 216 207 202 192 196 194 197 197 199 196 218 204 222 190 193 198 213 195 194 196 218 224 231 247 251 252 199 225 229 226 217 177 161
215 185 211 194 193 180 214 194 220 235 222 234 229 240 219 183 206 190 187 207 204 203 210 218 226 143 162 203 188 182 194 217 223 229 229 253 244 242 242 233 218 226 219 179 164
193 207 180 185 172 174 187 177 180 172 189 180 285 255 233 223 207 200 205 204 205 202 203 211 233 222 203 213 219 204 203 194 192 206 226 244 252 132 168 245 248 233 174 168 164
175 175 180 188 206 169 184 190 258 150 182 200 205 216 255 246 237 231 211 213 196 197 197 183 208 193 184 237 228 223 216 215 227 267 215 216 249 263 207 149 190 167 166 164 161
160 156 197 206 211 175 172 177 184 210 184 192 198 213 254 259 238 228 227 209 206 204 208 189 219 217 220 214 181 202 214 211 211 216 225 222 244 247 228 224 168 167 171 167 165
164 194 181 185 191 159 185 177 194 195 216 203 207 221 188 252 282 244 201 218 199 205 208 202 221 218 232 245 233 206 212 211 213 220 221 231 227 251 249 204 190 178 169 172 173
152 149 132 118 161 179 199 207 210 192 171 215 230 174 185 231 242 293 212 209 206 207 202 210 217 207 225 234 233 226 216 213 215 220 226 238 243 244 255 222 182 184 179 182 181
175 158 157 162 145 180 210 232 234 200 233 227 209 219 224 239 233 270 110 152 155 172 208 198 213 201 232 225 224 227 219 212 218 220 224 224 232 243 231 206 193 193 192 185 182